Biloxi, MS

8:16 PM CDT on May 20, 2018 (GMT -0500)
Keesler Air Force Base

Weather History for KBIX - March, 2014

Change the Weather History Date:

Sunday, March 9, 2014

  Actual Average Record
Temperature  
Mean Temperature 61 °F -  
Max Temperature 69 °F 68 °F 80 °F (1951)
Min Temperature 53 °F 49 °F 35 °F (1954)
Degree Days  
Heating Degree Days 4    
Growing Degree Days 11 (Base 50)    
Moisture  
Dew Point 55 °F    
Average Humidity 83    
Maximum Humidity 100    
Minimum Humidity 59    
Precipitation  
Precipitation 0.00 in - - ()
Sea Level Pressure  
Sea Level Pressure 30.19 in    
Wind  
Wind Speed 4 mph (SSW)    
Max Wind Speed 9 mph    
Max Gust Speed -    
Visibility 10 miles    
Events      
Averages and records for this station are not official NWS values.
T = Trace of Precipitation, MM = Missing Value Source: NWS Daily Summary

Daily Weather History Graph

Daily Weather History Graph

Search for Another Location

Airport or City:

Astronomy

Mar. 09, 2014 Rise Set
Actual Time 7:12 AM CDT 7:00 PM CDT
Civil Twilight 6:48 AM CDT 7:24 PM CDT
Nautical Twilight 6:20 AM CDT 7:51 PM CDT
Astronomical Twilight 5:53 AM CDT 8:19 PM CDT
Moon 1:09 PM CDT (3/9) 3:20 AM CDT (3/9)
Length of Visible Light 12h 35m
Length of Day
11h 47m
First Quarter, 61% of the Moon is Illuminated
Mar 9
First Quarter
Mar 16
Full
Mar 23
Last Quarter
Mar 30
New
Apr 7
First Quarter

Hourly Weather History & Observations

Time (CDT) Temp. Dew Point Humidity Pressure Visibility Wind Dir Wind Speed Gust Speed Precip Events Conditions
12:58 AM 59.2 °F 54.7 °F 85% 30.17 in 10.0 mi ESE 2.3 mph - N/A   Mostly Cloudy
1:58 AM 57.0 °F 55.6 °F 95% 30.17 in 10.0 mi NNE 2.3 mph - N/A   Scattered Clouds
3:58 AM 55.4 °F 54.9 °F 98% 30.18 in 10.0 mi North 2.3 mph - N/A   Scattered Clouds
4:58 AM 54.7 °F 54.7 °F 100% 30.18 in 10.0 mi NE 3.5 mph - N/A   Partly Cloudy
5:58 AM 54.0 °F 53.8 °F 99% 30.18 in 10.0 mi ENE 4.6 mph - N/A   Mostly Cloudy
6:58 AM 53.4 °F 53.4 °F 100% 30.20 in 10.0 mi Calm Calm - N/A   Scattered Clouds
7:58 AM 53.4 °F 53.4 °F 100% 30.21 in 10.0 mi Calm Calm - N/A   Clear
8:58 AM 56.5 °F 55.4 °F 96% 30.23 in 10.0 mi Calm Calm - N/A   Scattered Clouds
9:58 AM 60.6 °F 55.9 °F 85% 30.25 in 10.0 mi Calm Calm - N/A   Partly Cloudy
10:58 AM 66.2 °F 55.6 °F 69% 30.26 in 10.0 mi South 8.1 mph - N/A   Partly Cloudy
11:58 AM 66.7 °F 54.9 °F 66% 30.25 in 10.0 mi South 8.1 mph - N/A   Clear
12:58 PM 68.7 °F 55.0 °F 62% 30.23 in 10.0 mi SSW 8.1 mph - N/A   Clear
1:58 PM 69.1 °F 54.9 °F 60% 30.20 in 10.0 mi SSW 8.1 mph - N/A   Clear
2:58 PM 67.8 °F 54.1 °F 62% 30.17 in 10.0 mi SSW 5.8 mph - N/A   Partly Cloudy
3:58 PM 68.5 °F 53.6 °F 59% 30.16 in 10.0 mi SSW 8.1 mph - N/A   Clear
4:58 PM 66.4 °F 55.8 °F 69% 30.15 in 10.0 mi SSW 9.2 mph - N/A   Mostly Cloudy
5:58 PM 65.3 °F 54.7 °F 68% 30.13 in 10.0 mi SSW 6.9 mph - N/A   Clear
6:58 PM 61.9 °F 54.9 °F 78% 30.15 in 10.0 mi SSW 5.8 mph - N/A   Clear
7:58 PM 59.7 °F 56.7 °F 90% 30.17 in 10.0 mi SSW 6.9 mph - N/A   Clear
8:58 PM 60.8 °F 57.7 °F 90% 30.20 in 10.0 mi SW 8.1 mph - N/A   Mostly Cloudy
9:58 PM 59.2 °F 55.9 °F 89% 30.20 in 10.0 mi SW 6.9 mph - N/A   Clear
10:58 PM 58.3 °F 55.0 °F 89% 30.20 in 10.0 mi SW 5.8 mph - N/A   Clear
11:58 PM 58.8 °F 55.8 °F 90% 30.18 in 10.0 mi Calm Calm - N/A   Partly Cloudy
12:58 AM 57.2 °F 56.1 °F 96% 30.16 in 10.0 mi Calm Calm - N/A   Clear